Regional Weather Roundup
Issued by NWS Upton, NY

Current Version | Previous Version | Graphics & Text | Print | Product List | Glossary Off
Versions: 1 2 3 4 5 6 7 8 9 10 11 12 13 14 15 16 17 18 19 20 21 22 23 24 25 26 27 28 29 30 31 32 33 34 35 36 37 38 39 40 41 42 43 44 45 46 47 48 49 50

001
ASUS41 KOKX 270909
RWROKX

REGIONAL WEATHER ROUNDUP
NATIONAL WEATHER SERVICE NEW YORK NY
500 AM EDT SAT MAY 27 2017

NOTE: "FAIR" INDICATES FEW OR NO CLOUDS BELOW 12,000 FEET WITH NO
SIGNIFICANT WEATHER AND/OR OBSTRUCTIONS TO VISIBILITY.

NYZ071-072-176-178-NJZ106-104-271000-
NEW YORK CITY METRO AREA

CITY           SKY/WX    TMP DP  RH WIND       PRES   REMARKS
Central Park   PTCLDY    59  54  83 W5        29.87R
Wall St Helipt SUNNY     61  54  77 W6        29.86R
Bronx Bot Gard   N/A     61  52  72 W7        29.84R
LaGuardia APRT PTCLDY    63  53  70 W14       29.83R
Kennedy INTL   PTCLDY    62  55  77 W8        29.85R
Breezy Point     N/A     59 N/A N/A W7          N/A
Newark/Liberty PTCLDY    58  53  84 SW5       29.85R
Teterboro      CLEAR     56  53  90 S5        29.84R
$$

NYZ177-179-078>081-271000-
LONG ISLAND NEW YORK

CITY           SKY/WX    TMP DP  RH WIND       PRES   REMARKS
Jones Beach      N/A     59 N/A N/A W2          N/A
Matinecock PT    N/A     59 N/A N/A W2          N/A
Farmingdale    CLEAR     57  53  86 CALM      29.83R
MacArthur/ISP  CLEAR     55  54  96 NW3       29.83R
Shirley        CLEAR     52  52 100 NW3       29.83R
Mt Sinai Harb    N/A     55 N/A N/A W2          N/A
Westhampton    CLEAR     50  47  89 W3        29.84R
East Hampton   CLOUDY    57  53  88 NW3       29.81R
Montauk          N/A     58  54  86 NW8       29.82R
$$

NYZ052-065-067-271000-
HUDSON VALLEY

CITY           SKY/WX    TMP DP  RH WIND       PRES   REMARKS
White Plains   PTCLDY    55  51  86 NW3       29.83R
Larchmont Harb   N/A     57 N/A N/A W1          N/A
Croton O-T Hud   N/A     55 N/A N/A MISG        N/A
Newburgh       PTCLDY    52  52 100 W7        29.85R
Montgomery     PTCLDY    58  51  78 NW9       29.83R
Poughkeepsie   CLOUDY    54  52  93 CALM      29.83R
Albany         MOCLDY    54  50  86 N6        29.86R
$$

NJZ001-105-106-008-010-013-015-019>022-104-271000-
NEW JERSEY

CITY           SKY/WX    TMP DP  RH WIND       PRES   REMARKS
Newark/Liberty PTCLDY    58  53  84 SW5       29.85R
Teterboro      CLEAR     56  53  90 S5        29.84R
Caldwell       PTCLDY    57  53  86 W3        29.86R
Somerville     MOCLDY    53  52  96 CALM      29.84S
Linden         CLOUDY    58  54  88 CALM      29.86R
Perth Amboy      N/A     59 N/A N/A W5          N/A
Sussex         MOCLDY    53  53 100 SW3       29.87R
Andover          N/A     53  52  96 CALM      29.87R
Trenton        CLEAR     59  54  83 W7        29.86R
Millville      CLEAR     53  53 100 W6        29.89R
Atlantic City  CLEAR     58  52  80 W5        29.88R
Wrightstown    CLEAR     58  54  89 W6        29.84S
Toms River     CLEAR     56  54  93 W6        29.88R
Belmar         CLEAR     57  55  93 W3        29.87
$$

PAZ047>061-062-071-271000-
EASTERN PENNSYLVANIA

CITY           SKY/WX    TMP DP  RH WIND       PRES   REMARKS
Philadelphia   CLEAR     61  51  70 W10       29.89S
Allentown      MOCLDY    56  50  80 W6        29.88S
Scranton       CLOUDY    57  53  86 SW6       29.88S
$$

CTZ002-004>006-009-010-012-RIZ004-006-007-MAZ004-011-015-271000-
SOUTHERN NEW ENGLAND
 IN CT

CITY           SKY/WX    TMP DP  RH WIND       PRES   REMARKS
Bradley INTL   MOCLDY    54  49  83 W7        29.82R
Hartford       CLOUDY    58  50  75 NW7       29.82R
Danbury        CLOUDY    53  53 100 CALM      29.84S
Wtrbury/Oxford   N/A     52  46  82 N7        29.84R
Bridgeport     CLOUDY    59  52  77 CALM      29.83R
Meriden        MOCLDY    57  52  83 W3        29.83R
New Haven      PTCLDY    55  50  83 NW3       29.82R
Chester        CLOUDY    57  54  88 NW5       29.82R
Groton         CLOUDY    58  52  80 NW5       29.80R
Wilimantic     CLOUDY    56  53  90 N3        29.82R

 IN RI

CITY           SKY/WX    TMP DP  RH WIND       PRES   REMARKS
Providence     CLOUDY    55  54  96 N3        29.81R
Block Island   CLOUDY    55  53  93 NW8       29.81R
Westerly       CLOUDY    57  54  89 N5        29.81R
 IN MA

CITY           SKY/WX    TMP DP  RH WIND       PRES   REMARKS
Boston         CLOUDY    53  50  89 NW7       29.80R
Worcester      CLOUDY    50  46  86 NW9       29.81R
Westfield      MOCLDY    53  50  89 NW6       29.82R
Provincetown   CLOUDY    52  50  93 NW7       29.80R
Nantucket      CLOUDY   N/A N/A N/A N9        29.78R
$$

ANZ330-335-338-340-345-350-353-355-271000-
COASTAL MARINE OBSERVATIONS


STATION/POSITION TIME  SKY/WX   TEMP    WIND        PRES    VSBY  WAVE
                                AIR SEA DIR/SP/G                  HT/PER
                 (UTC)          (F)     (DEG/KT/KT) (MB)    (MI)  (FT/S)
NY HARB ENTRANCE 0750            59 57  280/  8/ 10 1010.0          3/ 8
20 S FIRE ISLAND 0850            58 56  300/  6/  8 1010.0          4/ 9
GREAT SOUTH BAY  0830            60 63  310/  6/  8   N/A
23 SSW MONTAUK P 0750            56 54              1009.3          5/ 9
15 E BARNEGAT LI 0830               58                N/A           4/ 7
HUDSON CANYON    0750            58 55  300/  8/  8 1009.7          5/ 8
KINGS POINT      0836            60 58   50/  3/  4 1010.0
EXECUTION ROCKS  0845            60                   N/A
CENTRAL LI SOUND 0845            58     290/  8/ 10   N/A           1
EASTERN LI SOUND NOT AVBL
ROBBINS REEF     0842            62     270/  8/  9 1011.2
$$


>>>>>>>>>>>>>>>>>>>>>>>>>>>> KEY <<<<<<<<<<<<<<<<<<<<<<<<<<<
>                                                          <
>     SKY/WX - Sky Condition/Present Weather               <
>     TMP    - Temperature in Fahrenheit                   <
>     DP     - Dew Point in Fahrenheit                     <
>     RH     - Relative Humidity in Percent                <
>     WIND   - Direction (from) and Speed in MPH           <
>     PRES   - Mean Sea Level Pressure (inches of Hg)      <
>     WCI    - Wind Chill Index                            <
>     VSB    - VISIBILITY IN MILES                         <
>     HX     - HEAT INDEX                                  <
>     TC     - TEMPERATURE IN CELSIUS                      <
>     VRB    - VARIABLE WIND DIRECTION                     <
>                                                          <
>>>>>>>>>>>>>>>>>>>>>>>>>>>> KEY <<<<<<<<<<<<<<<<<<<<<<<<<<<




USA.gov is the U.S. government's official web portal to all federal, state and local government web resources and services.